| time (UTC) | temp F | wind direction | speed MPH | gust MPH | rain 1hr in | rain 24hr in | rain mn in | humidity % | barometer mb |
| 20260906211545 | 82 | 209 | 11.0 | 22.0 | 0.00 | 0.00 | 0.00 | 37 | 1005.7 |
| 20260906210041 | 81 | 248 | 6.0 | 17.0 | 0.00 | 0.00 | 0.00 | 40 | 1006.0 |
| 20260906204539 | 80 | 192 | 7.0 | 16.0 | 0.00 | 0.00 | 0.00 | 41 | 1006.3 |
| 20260906203041 | 82 | 190 | 11.0 | 21.0 | 0.00 | 0.00 | 0.00 | 40 | 1006.4 |
| 20260906201535 | 83 | 252 | 9.0 | 15.0 | 0.00 | 0.00 | 0.00 | 38 | 1006.4 |
| 20260906200033 | 82 | 227 | 10.0 | 16.0 | 0.00 | 0.00 | 0.00 | 38 | 1006.5 |
| 20260906194530 | 81 | 246 | 5.0 | 14.0 | 0.00 | 0.00 | 0.00 | 39 | 1006.6 |
| 20260906193029 | 81 | 211 | 7.0 | 14.0 | 0.00 | 0.00 | 0.00 | 40 | 1006.7 |
| 20260906191526 | 81 | 207 | 7.0 | 14.0 | 0.00 | 0.00 | 0.00 | 37 | 1007.0 |
| 20260906190022 | 80 | 278 | 7.0 | 12.0 | 0.00 | 0.00 | 0.00 | 39 | 1007.3 |
| 20260906184521 | 80 | 184 | 7.0 | 13.0 | 0.00 | 0.00 | 0.00 | 38 | 1007.8 |
| 20260906183038 | 80 | 196 | 5.0 | 11.0 | 0.00 | 0.00 | 0.00 | 40 | 1008.0 |
| 20260906181517 | 78 | 231 | 7.0 | 11.0 | 0.00 | 0.00 | 0.00 | 41 | 1008.3 |
| 20260906180018 | 77 | 193 | 4.0 | 9.0 | 0.00 | 0.00 | 0.00 | 43 | 1008.6 |
| 20260906174510 | 77 | 218 | 8.0 | 11.0 | 0.00 | 0.00 | 0.00 | 41 | 1008.8 |
| 20260906173011 | 77 | 167 | 3.0 | 12.0 | 0.00 | 0.00 | 0.00 | 41 | 1008.9 |
| 20260906171517 | 77 | 187 | 5.0 | 10.0 | 0.00 | 0.00 | 0.00 | 40 | 1009.1 |
| 20260906170009 | 77 | 191 | 4.0 | 11.0 | 0.00 | 0.00 | 0.00 | 41 | 1009.2 |
| 20260906164504 | 76 | 238 | 6.0 | 9.0 | 0.00 | 0.00 | 0.00 | 42 | 1009.2 |
| 20260906163005 | 75 | 158 | 4.0 | 9.0 | 0.00 | 0.00 | 0.00 | 43 | 1009.2 |
| 20260906161603 | 74 | 127 | 3.0 | 8.0 | 0.00 | 0.00 | 0.00 | 44 | 1009.2 |
| 20260906160057 | 74 | 196 | 4.0 | 8.0 | 0.00 | 0.00 | 0.00 | 45 | 1009.4 |
| 20260906154554 | 73 | 146 | 4.0 | 8.0 | 0.00 | 0.00 | 0.00 | 45 | 1009.1 |
| 20260906153050 | 71 | 145 | 3.0 | 8.0 | 0.00 | 0.00 | 0.00 | 48 | 1009.0 |
| 20260906151548 | 71 | 79 | 4.0 | 8.0 | 0.00 | 0.00 | 0.00 | 48 | 1009.1 |
| 20260906150050 | 69 | 102 | 3.0 | 8.0 | 0.00 | 0.00 | 0.00 | 51 | 1009.0 |
| 20260906144545 | 68 | 78 | 2.0 | 8.0 | 0.00 | 0.00 | 0.00 | 52 | 1009.0 |
| 20260906143037 | 67 | 59 | 1.0 | 8.0 | 0.00 | 0.00 | 0.00 | 55 | 1008.9 |
| 20260906141536 | 65 | 100 | 2.0 | 6.0 | 0.00 | 0.00 | 0.00 | 58 | 1008.8 |
| 20260906140036 | 63 | 64 | 1.0 | 6.0 | 0.00 | 0.00 | 0.00 | 60 | 1008.7 |
| 20260906134527 | 62 | 53 | 1.0 | 4.0 | 0.00 | 0.00 | 0.00 | 62 | 1008.7 |
| 20260906133025 | 60 | 51 | 1.0 | 4.0 | 0.00 | 0.00 | 0.00 | 63 | 1008.8 |
| 20260906131524 | 59 | 42 | 1.0 | 4.0 | 0.00 | 0.00 | 0.00 | 63 | 1008.6 |
| 20260906130028 | 59 | 48 | 1.0 | 3.0 | 0.00 | 0.00 | 0.00 | 64 | 1008.5 |
| 20260906124523 | 59 | 35 | 0.0 | 3.0 | 0.00 | 0.00 | 0.00 | 63 | 1008.6 |
| 20260906123031 | 59 | 33 | 0.0 | 4.0 | 0.00 | 0.00 | 0.00 | 62 | 1008.7 |
| 20260906121534 | 59 | 38 | 1.0 | 5.0 | 0.00 | 0.00 | 0.00 | 62 | 1008.6 |
| 20260906120021 | 58 | 38 | 1.0 | 3.0 | 0.00 | 0.00 | 0.00 | 63 | 1008.6 |
| 20260906114528 | 58 | 44 | 1.0 | 2.0 | 0.00 | 0.00 | 0.00 | 63 | 1008.6 |
| 20260906113039 | 58 | 35 | 0.0 | 2.0 | 0.00 | 0.00 | 0.00 | 64 | 1008.5 |
| 20260906111522 | 59 | 35 | 0.0 | 2.0 | 0.00 | 0.00 | 0.00 | 62 | 1008.3 |
| 20260906110020 | 60 | 35 | 0.0 | 2.0 | 0.00 | 0.00 | 0.00 | 63 | 1008.1 |
| 20260906104527 | 60 | 35 | 1.0 | 3.0 | 0.00 | 0.00 | 0.00 | 62 | 1008.2 |
| 20260906103016 | 59 | 35 | 0.0 | 2.0 | 0.00 | 0.00 | 0.00 | 65 | 1008.1 |
| 20260906101515 | 58 | 35 | 0.0 | 4.0 | 0.00 | 0.00 | 0.00 | 67 | 1008.2 |
| 20260906100018 | 57 | 36 | 0.0 | 3.0 | 0.00 | 0.00 | 0.00 | 70 | 1008.3 |
| 20260906094512 | 58 | 25 | 0.0 | 2.0 | 0.00 | 0.00 | 0.00 | 72 | 1008.3 |
| 20260906093009 | 59 | 25 | 0.0 | 2.0 | 0.00 | 0.00 | 0.00 | 72 | 1008.3 |
| 20260906091505 | 61 | 24 | 0.0 | 2.0 | 0.00 | 0.00 | 0.00 | 70 | 1008.1 |
| 20260906090003 | 62 | 25 | 0.0 | 0.0 | 0.00 | 0.00 | 0.00 | 69 | 1007.9 |
| 20260906084502 | 62 | 25 | 0.0 | 2.0 | 0.00 | 0.00 | 0.00 | 70 | 1007.9 |
| 20260906083001 | 62 | 25 | 0.0 | 3.0 | 0.00 | 0.00 | 0.00 | 72 | 1007.9 |
| 20260906081614 | 62 | 34 | 0.0 | 4.0 | 0.00 | 0.00 | 0.00 | 73 | 1008.0 |
| 20260906080104 | 61 | 24 | 1.0 | 2.0 | 0.00 | 0.00 | 0.00 | 75 | 1008.0 |
| 20260906074612 | 61 | 28 | 0.0 | 1.0 | 0.00 | 0.00 | 0.00 | 75 | 1008.0 |
| 20260906073100 | 61 | 28 | 1.0 | 3.0 | 0.00 | 0.00 | 0.00 | 75 | 1008.0 |
| 20260906071555 | 62 | 28 | 0.0 | 2.0 | 0.00 | 0.00 | 0.00 | 73 | 1008.2 |
| 20260906070052 | 62 | 28 | 0.0 | 2.0 | 0.00 | 0.00 | 0.00 | 72 | 1008.4 |
| 20260906064550 | 63 | 254 | 0.0 | 4.0 | 0.00 | 0.00 | 0.00 | 71 | 1008.4 |
| 20260906063049 | 63 | 27 | 0.0 | 4.0 | 0.00 | 0.00 | 0.00 | 70 | 1008.4 |
| 20260906061555 | 63 | 263 | 1.0 | 3.0 | 0.00 | 0.00 | 0.00 | 70 | 1008.4 |
| 20260906060044 | 63 | 266 | 4.0 | 6.0 | 0.00 | 0.00 | 0.00 | 71 | 1008.0 |
| 20260906054544 | 63 | 257 | 3.0 | 5.0 | 0.00 | 0.00 | 0.00 | 70 | 1008.1 |
| 20260906053044 | 63 | 238 | 3.0 | 7.0 | 0.00 | 0.00 | 0.00 | 71 | 1008.1 |
| 20260906051552 | 62 | 259 | 2.0 | 5.0 | 0.00 | 0.00 | 0.00 | 72 | 1008.0 |
| 20260906050047 | 63 | 294 | 2.0 | 3.0 | 0.00 | 0.00 | 0.00 | 72 | 1008.1 |
| 20260906044542 | 64 | 294 | 2.0 | 3.0 | 0.00 | 0.00 | 0.00 | 71 | 1008.1 |
| 20260906043042 | 65 | 289 | 1.0 | 3.0 | 0.00 | 0.00 | 0.00 | 70 | 1008.1 |
| 20260906041543 | 65 | 246 | 3.0 | 6.0 | 0.00 | 0.00 | 0.00 | 70 | 1008.1 |
| 20260906040045 | 65 | 267 | 1.0 | 4.0 | 0.00 | 0.00 | 0.00 | 70 | 1008.1 |
| 20260906034541 | 66 | 257 | 2.0 | 5.0 | 0.00 | 0.00 | 0.00 | 70 | 1008.2 |
| 20260906033046 | 66 | 244 | 3.0 | 6.0 | 0.00 | 0.00 | 0.00 | 69 | 1007.9 |
| 20260906031553 | 67 | 242 | 2.0 | 4.0 | 0.00 | 0.00 | 0.00 | 68 | 1007.8 |
| 20260906030039 | 68 | 234 | 2.0 | 6.0 | 0.00 | 0.00 | 0.00 | 66 | 1007.6 |
| 20260906024539 | 68 | 223 | 2.0 | 8.0 | 0.00 | 0.00 | 0.00 | 65 | 1007.5 |
| 20260906023039 | 69 | 217 | 5.0 | 12.0 | 0.00 | 0.00 | 0.00 | 64 | 1007.6 |
| 20260906021538 | 69 | 215 | 9.0 | 19.0 | 0.00 | 0.00 | 0.00 | 64 | 1007.8 |
| 20260906020037 | 68 | 200 | 7.0 | 12.0 | 0.00 | 0.00 | 0.00 | 48 | 1007.6 |
| 20260906014537 | 72 | 180 | 0.0 | 0.0 | 0.00 | 0.00 | 0.00 | 39 | 1007.1 |
| 20260906013036 | 73 | 182 | 0.0 | 0.0 | 0.00 | 0.00 | 0.00 | 38 | 1007.1 |
| 20260906011540 | 75 | 182 | 0.0 | 1.0 | 0.00 | 0.00 | 0.00 | 35 | 1007.0 |
| 20260906010035 | 76 | 44 | 0.0 | 2.0 | 0.00 | 0.00 | 0.00 | 34 | 1007.2 |
| 20260906004534 | 77 | 215 | 0.0 | 0.0 | 0.00 | 0.00 | 0.00 | 34 | 1007.4 |
| 20260906003034 | 78 | 215 | 0.0 | 0.0 | 0.00 | 0.00 | 0.00 | 32 | 1007.2 |
| 20260906001533 | 79 | 215 | 0.0 | 0.0 | 0.00 | 0.00 | 0.00 | 32 | 1007.1 |
| 20260906000033 | 80 | 215 | 0.0 | 2.0 | 0.00 | 0.00 | 0.00 | 31 | 1007.1 |
| 20260905234532 | 81 | 215 | 2.0 | 3.0 | 0.00 | 0.00 | 0.00 | 29 | 1006.9 |
| 20260905233035 | 81 | 257 | 3.0 | 6.0 | 0.00 | 0.00 | 0.00 | 27 | 1006.7 |
| 20260905231532 | 81 | 111 | 1.0 | 4.0 | 0.00 | 0.00 | 0.00 | 27 | 1006.6 |
| 20260905230031 | 80 | 192 | 3.0 | 6.0 | 0.00 | 0.00 | 0.00 | 29 | 1006.5 |
| 20260905224545 | 80 | 275 | 1.0 | 5.0 | 0.00 | 0.00 | 0.00 | 28 | 1006.7 |
| 20260905223030 | 80 | 281 | 3.0 | 8.0 | 0.00 | 0.00 | 0.00 | 28 | 1007.0 |
| 20260905221529 | 80 | 88 | 3.0 | 7.0 | 0.00 | 0.00 | 0.00 | 28 | 1006.8 |
| 20260905220033 | 80 | 94 | 2.0 | 6.0 | 0.00 | 0.00 | 0.00 | 28 | 1006.9 |
| 20260905214528 | 79 | 16 | 1.0 | 4.0 | 0.00 | 0.00 | 0.00 | 30 | 1007.0 |
| 20260905213028 | 78 | 230 | 3.0 | 7.0 | 0.00 | 0.00 | 0.00 | 31 | 1007.5 |